• In Hungary
  • List of Countries
  • For 7 days
  • Water Temperature
  • Satellite Maps
  • Weather Map
  • News
  • Weather Widgets
  • user-avatar
    Login

    Hourly Weather Sternberk

    Today, 21 September, Friday

    Time Temperature Precipitation Wind Pressure Humidity
    00:00 +18°C° 0 mm 1 mps 736 mmHg 76%
    01:00 +18°C° 0 mm 1 mps 736 mmHg 77%
    02:00 +16°C° 0 mm 1 mps 735 mmHg 77%
    03:00 +16°C° 0 mm 1 mps 735 mmHg 77%
    04:00 +16°C° 0 mm 2 mps 735 mmHg 77%
    05:00 +16°C° 0 mm 2 mps 735 mmHg 76%
    06:00 +17°C° 0 mm 2 mps 735 mmHg 74%
    07:00 +17°C° 0 mm 2 mps 734 mmHg 73%
    08:00 +19°C° 0 mm 3 mps 734 mmHg 66%
    09:00 +21°C° 0 mm 4 mps 734 mmHg 59%
    10:00 +23°C° 0 mm 4 mps 734 mmHg 52%
    11:00 +25°C° 0 mm 5 mps 734 mmHg 50%
    12:00 +26°C° 0 mm 5 mps 733 mmHg 48%
    13:00 +27°C° 0 mm 6 mps 733 mmHg 47%
    14:00 +26°C° 0 mm 5 mps 732 mmHg 48%
    15:00 +26°C° 0 mm 5 mps 732 mmHg 49%
    16:00 +26°C° 0 mm 4 mps 731 mmHg 51%
    17:00 +23°C° 0 mm 4 mps 731 mmHg 55%
    18:00 +22°C° 0 mm 3 mps 731 mmHg 59%
    19:00 +20°C° 0 mm 3 mps 731 mmHg 63%
    20:00 +20°C° 0.1 mm 3 mps 731 mmHg 65%
    21:00 +20°C° 0.1 mm 3 mps 732 mmHg 66%
    22:00 +19°C° 0.1 mm 3 mps 732 mmHg 68%
    23:00 +19°C° 0.7 mm 4 mps 733 mmHg 74%

    Tomorrow, 22 September, Saturday

    Time Temperature Precipitation Wind Pressure Humidity
    00:00 +18°C° 0.7 mm 4 mps 733 mmHg 80%
    01:00 +16°C° 0.7 mm 5 mps 734 mmHg 86%
    02:00 +15°C° 1.1 mm 4 mps 735 mmHg 86%
    03:00 +14°C° 1.1 mm 3 mps 735 mmHg 86%
    04:00 +13°C° 1.1 mm 3 mps 736 mmHg 86%
    05:00 +13°C° 0.3 mm 2 mps 737 mmHg 85%
    06:00 +13°C° 0.3 mm 2 mps 737 mmHg 84%
    07:00 +13°C° 0.3 mm 2 mps 737 mmHg 83%
    08:00 +12°C° 0.1 mm 3 mps 738 mmHg 76%
    09:00 +13°C° 0.1 mm 3 mps 738 mmHg 69%
    10:00 +14°C° 0.1 mm 4 mps 738 mmHg 61%
    11:00 +15°C° 0 mm 4 mps 738 mmHg 56%
    12:00 +17°C° 0 mm 4 mps 738 mmHg 51%
    13:00 +16°C° 0 mm 5 mps 737 mmHg 46%
    14:00 +17°C° 0 mm 4 mps 737 mmHg 47%
    15:00 +17°C° 0 mm 4 mps 737 mmHg 47%
    16:00 +17°C° 0 mm 4 mps 737 mmHg 48%
    17:00 +15°C° 0 mm 4 mps 737 mmHg 52%
    18:00 +13°C° 0 mm 3 mps 737 mmHg 56%
    19:00 +13°C° 0 mm 2 mps 738 mmHg 61%
    20:00 +13°C° 0 mm 2 mps 738 mmHg 63%
    21:00 +11°C° 0 mm 3 mps 738 mmHg 65%
    22:00 +10°C° 0 mm 3 mps 739 mmHg 68%
    23:00 +10°C° 0 mm 2 mps 739 mmHg 70%

    Day after tomorrow, 23 September, Sunday

    Time Temperature Precipitation Wind Pressure Humidity
    00:00 +9°C° 0 mm 2 mps 739 mmHg 73%
    01:00 +9°C° 0 mm 2 mps 739 mmHg 76%
    02:00 +9°C° 0 mm 2 mps 739 mmHg 77%
    03:00 +8°C° 0 mm 2 mps 739 mmHg 79%
    04:00 +8°C° 0 mm 2 mps 739 mmHg 81%
    05:00 +8°C° 0 mm 2 mps 739 mmHg 79%
    06:00 +9°C° 0 mm 2 mps 739 mmHg 77%
    07:00 +10°C° 0 mm 2 mps 739 mmHg 75%
    08:00 +12°C° 0 mm 2 mps 739 mmHg 69%
    09:00 +13°C° 0 mm 3 mps 739 mmHg 63%
    10:00 +15°C° 0 mm 4 mps 739 mmHg 57%
    11:00 +14°C° 0 mm 4 mps 738 mmHg 57%
    12:00 +14°C° 0 mm 4 mps 738 mmHg 58%
    13:00 +14°C° 0 mm 4 mps 737 mmHg 58%
    14:00 +14°C° 0.1 mm 4 mps 737 mmHg 62%
    15:00 +14°C° 0.1 mm 4 mps 736 mmHg 67%
    16:00 +14°C° 0.1 mm 3 mps 736 mmHg 71%
    17:00 +13°C° 0.1 mm 4 mps 735 mmHg 73%
    18:00 +13°C° 0.1 mm 5 mps 735 mmHg 76%
    19:00 +13°C° 0.1 mm 5 mps 734 mmHg 79%
    20:00 +13°C° 0 mm 5 mps 733 mmHg 78%
    21:00 +13°C° 0 mm 5 mps 733 mmHg 77%
    22:00 +13°C° 0 mm 5 mps 732 mmHg 76%
    23:00 +13°C° 0.1 mm 6 mps 730 mmHg 76%

    24 September, Monday

    Time Temperature Precipitation Wind Pressure Humidity
    00:00 +13°C° 0.1 mm 6 mps 729 mmHg 76%
    01:00 +13°C° 0.1 mm 6 mps 728 mmHg 75%
    02:00 +14°C° 0.6 mm 7 mps 727 mmHg 77%
    03:00 +14°C° 0.6 mm 7 mps 726 mmHg 78%
    04:00 +14°C° 0.6 mm 7 mps 725 mmHg 80%
    05:00 +14°C° 2.6 mm 7 mps 724 mmHg 82%
    06:00 +14°C° 2.6 mm 7 mps 724 mmHg 84%
    07:00 +14°C° 2.6 mm 7 mps 723 mmHg 86%
    08:00 +13°C° 0.3 mm 10 mps 724 mmHg 81%
    09:00 +12°C° 0.3 mm 12 mps 725 mmHg 76%
    10:00 +10°C° 0.3 mm 14 mps 726 mmHg 71%
    11:00 +10°C° 0 mm 14 mps 728 mmHg 69%
    12:00 +10°C° 0 mm 14 mps 730 mmHg 66%
    13:00 +10°C° 0 mm 14 mps 732 mmHg 63%
    14:00 +10°C° 0 mm 13 mps 733 mmHg 60%
    15:00 +11°C° 0 mm 11 mps 734 mmHg 58%
    16:00 +11°C° 0 mm 10 mps 735 mmHg 55%
    17:00 +10°C° 0.1 mm 9 mps 736 mmHg 58%
    18:00 +9°C° 0.1 mm 8 mps 737 mmHg 61%
    19:00 +8°C° 0.1 mm 7 mps 738 mmHg 64%
    20:00 +8°C° 0 mm 6 mps 739 mmHg 68%
    21:00 +7°C° 0 mm 5 mps 740 mmHg 72%
    22:00 +6°C° 0 mm 5 mps 741 mmHg 76%
    23:00 +6°C° 0 mm 5 mps 741 mmHg 76%

    25 September, Tuesday

    Time Temperature Precipitation Wind Pressure Humidity
    00:00 +6°C° 0 mm 5 mps 742 mmHg 77%
    01:00 +5°C° 0 mm 5 mps 743 mmHg 77%
    02:00 +5°C° 0 mm 5 mps 743 mmHg 77%
    03:00 +5°C° 0 mm 5 mps 744 mmHg 76%
    04:00 +3°C° 0 mm 5 mps 744 mmHg 76%
    05:00 +3°C° 0 mm 5 mps 745 mmHg 74%
    06:00 +5°C° 0 mm 5 mps 745 mmHg 73%
    07:00 +5°C° 0 mm 5 mps 746 mmHg 72%
    08:00 +6°C° 0 mm 5 mps 746 mmHg 64%
    09:00 +8°C° 0 mm 6 mps 747 mmHg 57%
    10:00 +9°C° 0 mm 6 mps 747 mmHg 49%
    11:00 +10°C° 0 mm 6 mps 747 mmHg 48%
    12:00 +11°C° 0 mm 6 mps 746 mmHg 46%
    13:00 +12°C° 0 mm 5 mps 746 mmHg 45%
    14:00 +12°C° 0 mm 5 mps 746 mmHg 46%
    15:00 +12°C° 0 mm 5 mps 745 mmHg 47%
    16:00 +12°C° 0 mm 5 mps 745 mmHg 49%
    17:00 +10°C° 0 mm 5 mps 745 mmHg 53%
    18:00 +8°C° 0 mm 4 mps 745 mmHg 57%
    19:00 +7°C° 0 mm 4 mps 745 mmHg 61%
    20:00 +7°C° 0 mm 4 mps 745 mmHg 64%
    21:00 +7°C° 0 mm 4 mps 744 mmHg 67%
    22:00 +7°C° 0 mm 4 mps 744 mmHg 71%
    23:00 +7°C° 0.1 mm 5 mps 743 mmHg 72%

    26 September, Wednesday

    Time Temperature Precipitation Wind Pressure Humidity
    00:00 +7°C° 0.1 mm 5 mps 743 mmHg 74%
    01:00 +7°C° 0.1 mm 6 mps 743 mmHg 75%
    02:00 +7°C° 0.4 mm 6 mps 743 mmHg 79%
    03:00 +7°C° 0.4 mm 6 mps 743 mmHg 82%
    04:00 +7°C° 0.4 mm 5 mps 743 mmHg 86%
    05:00 +7°C° 0.1 mm 5 mps 743 mmHg 86%
    06:00 +7°C° 0.1 mm 4 mps 744 mmHg 86%
    07:00 +8°C° 0.1 mm 3 mps 744 mmHg 87%
    08:00 +8°C° 0 mm 4 mps 745 mmHg 77%
    09:00 +10°C° 0 mm 4 mps 745 mmHg 68%
    10:00 +12°C° 0 mm 5 mps 746 mmHg 58%
    11:00 +12°C° 0 mm 4 mps 746 mmHg 54%
    12:00 +13°C° 0 mm 4 mps 746 mmHg 50%
    13:00 +14°C° 0 mm 4 mps 746 mmHg 46%
    14:00 +14°C° 0 mm 4 mps 746 mmHg 48%
    15:00 +14°C° 0 mm 3 mps 745 mmHg 50%
    16:00 +14°C° 0 mm 3 mps 745 mmHg 52%
    17:00 +13°C° 0 mm 2 mps 745 mmHg 60%
    18:00 +10°C° 0 mm 2 mps 746 mmHg 68%
    19:00 +9°C° 0 mm 1 mps 746 mmHg 75%
    20:00 +9°C° 0 mm 1 mps 746 mmHg 77%
    21:00 +9°C° 0 mm 1 mps 746 mmHg 79%
    22:00 +8°C° 0 mm 1 mps 746 mmHg 81%
    23:00 +8°C° 0 mm 1 mps 746 mmHg 81%
    Show more